Temp
4 4 4 4 4 4 4 4 4 4 4 4 3 3 3 3 4 5 4 4 5 2 3 5 6 6 5 4 7 3 4 1 2 5 6 4 5 3 3 2 -1 1 1 -0 2 2 3 2 3 5 6 4 3 1
3 3 3 3 3 3 3 3 3 3 3 3 3 3 3 3 2 3 4 3 3 3 2 4 4 5 6 6 4 1 4 0 2 1 2 3 6 3 1 6 0 5 4 2 3 4 5 2 5 6 4 4 2 0
3 3 3 3 3 3 3 3 3 3 3 3 3 3 3 3 3 3 2 2 3 1 1 -0 2 4 4 3 5 1 -0 0 -3 -1 0 3 6 1 6 2 0 1 2 3 4 7 5 5 4 3 2 1 0 0
3 3 3 3 3 3 3 3 3 3 3 3 3 3 3 3 3 3 3 2 2 1 1 1 4 4 3 3 3 3 2 2 2 1 4 5 5 4 2 3 3 4 3 5 5 7 6 3 3 2 0 1 1 0
2 2 2 2 2 3 3 3 3 3 3 3 3 3 3 3 3 3 3 2 2 2 0 1 3 -1 0 1 1 1 0 1 2 4 3 4 4 4 4 2 5 5 6 5 6 6 4 4 5 1 1 1 1 -2
2 2 2 2 2 2 2 2 3 3 3 3 3 3 3 3 3 3 0 1 2 2 1 2 -0 -1 -0 -0 -0 -1 -2 -1 1 2 3 3 2 3 4 1 0 -1 3 2 3 3 3 2 2 2 1 0 -0 -2
2 2 2 2 2 2 2 2 3 3 3 3 3 3 3 3 3 3 0 2 2 1 1 1 0 -2 -1 -1 -2 -3 -1 -1 -0 1 1 -0 1 3 2 3 5 1 -2 -1 -1 -1 2 2 0 0 -0 0 0 -1
2 2 2 1 1 2 2 2 3 3 3 3 3 3 2 2 2 1 1 1 1 0 0 1 -1 -2 -2 -3 -4 -5 -6 -5 -3 -2 -3 -3 -3 -3 0 -3 -3 -4 -4 -4 -2 -4 -2 -3 -3 -2 -2 -4 -4 -4
2 2 2 1 1 2 2 2 2 2 2 3 3 2 1 1 1 0 -1 -0 -0 0 0 1 1 -2 -3 -5 -7 -6 -3 -2 -5 -5 -4 -2 -2 -2 -1 -3 -4 -4 -2 -2 -4 -4 -4 -5 -4 -4 -7 -8 -8 -6
2 2 2 1 1 1 1 2 2 2 2 3 2 2 -5 -2 -1 -2 -1 -1 -0 -2 -1 -2 -4 -3 -4 -5 -4 -1 -6 -4 -6 -5 -4 -5 -6 -7 -5 -6 -3 -6 -7 -11 -4 -0 -2 -1 -4 -6 -8 -10 -10 -8
2 2 1 1 1 1 2 2 1 2 2 2 -1 -4 -1 -1 -1 -2 -2 -2 -6 -6 -5 -3 -4 -0 -3 -2 -3 -4 -5 -6 -6 -5 -4 -7 -6 -7 -9 -11 -7 -5 -5 -5 -5 -6 -9 -8 -8 -8 -7 -8 -7 -7
1 1 1 1 1 1 1 1 1 1 1 0 -0 -0 -1 -2 -2 -3 -3 -6 -6 -3 -3 -1 -2 -2 -3 -3 -4 -5 -5 -7 -2 -7 -7 -7 -6 -5 -4 -5 -3 -4 -5 -8 -7 -8 -7 -8 -7 -8 -9 -8 -7 -7
1 1 1 1 1 1 1 1 1 1 0 -0 0 -0 -2 -5 -2 -2 -6 -7 -6 -4 -4 -6 -4 -4 -5 -4 -6 -5 -5 -5 -7 -8 -6 -6 -9 -8 -6 -7 -6 -2 -3 -6 -6 -5 -6 -6 -6 -6 -7 -7 -8 -9
0 1 1 1 1 1 1 1 1 0 0 -1 -1 -2 -1 -4 -3 -7 -6 -6 -5 -7 -7 -6 -5 -3 -6 -6 -8 -2 -3 -5 -7 -8 -6 -4 -5 -7 -7 -11 -10 -6 -9 -9 -8 -7 -7 -7 -8 -8 -8 -9 -10 -11
0 0 1 2 1 1 1 1 1 0 -0 -3 -1 -2 -6 -8 -11 -11 -13 -10 -7 -6 -5 -5 -4 -3 -5 -3 -5 -6 -6 -6 -5 -5 -5 -5 -7 -8 -9 -7 -6 -7 -8 -10 -7 -7 -7 -8 -9 -10 -10 -10 -10 -11
0 0 1 1 1 1 0 0 1 0 -1 -2 -2 -2 -4 -4 -7 -9 -11 -7 -6 -5 -5 -5 -1 -2 -4 -6 -5 -5 -8 -6 -3 -6 -5 -7 -4 -5 -4 -3 -4 -4 -6 -7 -8 -9 -9 -10 -11 -11 -11 -11 -11 -12
0 0 1 1 1 1 0 0 -0 -1 -1 -1 -2 -1 -8 -10 -5 -4 -6 -6 -4 -5 -4 -3 -1 -2 -7 -4 -6 -7 -7 1 1 -1 -4 -2 -1 -1 -2 -3 -5 -7 -8 -9 -10 -10 -11 -11 -11 -12 -12 -12 -12 -12
0 0 0 0 0 -0 -0 -0 -0 -1 -1 -5 -3 -6 -8 -6 -6 -5 -8 -9 -6 -6 -5 -2 -4 -2 -2 -6 -6 -5 -6 -6 -5 -3 -2 -1 -3 -5 -6 -7 -9 -10 -10 -11 -11 -12 -12 -12 -12 -12 -12 -13 -13 -13
0 0 0 0 0 -1 -1 -1 -1 -1 -3 -8 -9 -10 -8 -6 -5 -2 -2 -3 -4 -4 -3 -2 -2 -4 -6 -8 -8 -7 -7 -6 -7 -6 -5 -7 -8 -9 -10 -11 -11 -11 -12 -12 -13 -13 -12 -12 -13 -13 -13 -14 -13 -12
-0 -0 0 0 -0 -1 -1 -2 -1 -1 -1 -4 -6 -7 -9 -7 -8 -10 -9 -10 -7 -4 -3 -3 -5 -9 -9 -8 -8 -9 -9 -10 -9 -9 -7 -8 -10 -11 -12 -12 -13 -13 -13 -13 -13 -12 -12 -13 -13 -14 -14 -12 -13 -13
-0 -0 0 -0 -0 -1 -1 -5 -5 -3 -2 -3 -5 -6 -8 -13 -10 -10 -10 -10 -10 -7 -5 -10 -10 -10 -11 -10 -12 -12 -12 -13 -12 -11 -11 -11 -11 -12 -13 -13 -13 -13 -14 -14 -14 -14 -14 -14 -14 -15 -14 -14 -14 -13
-0 -0 -1 -1 -1 -1 -2 -2 -4 -6 -5 -5 -6 -4 -5 -6 -10 -12 -10 -9 -9 -12 -14 -13 -12 -13 -12 -12 -13 -14 -15 -15 -14 -14 -13 -13 -13 -13 -13 -13 -14 -14 -15 -14 -15 -15 -15 -15 -15 -14 -14 -14 -15 -15
-0 -1 -1 -1 -1 -2 -4 -5 -2 -5 -2 -5 -6 -5 -5 -6 -8 -11 -9 -14 -15 -16 -15 -15 -15 -15 -14 -14 -14 -15 -16 -16 -16 -16 -16 -15 -15 -15 -15 -15 -15 -15 -15 -15 -16 -16 -16 -16 -17 -15 -16 -16 -16 -16
-1 -2 -1 -1 -2 -3 -10 -7 -9 -9 -9 -8 -7 -7 -9 -10 -14 -8 -7 -16 -16 -15 -15 -16 -16 -15 -15 -15 -15 -16 -16 -17 -17 -17 -17 -16 -16 -16 -16 -16 -16 -16 -16 -17 -17 -18 -17 -18 -17 -17 -17 -17 -17 -17
-1 -2 -3 -2 -6 -5 -6 -8 -9 -8 -5 -9 -9 -10 -10 -12 -9 -10 -10 -15 -15 -16 -16 -16 -16 -16 -16 -16 -17 -17 -17 -18 -18 -19 -18 -17 -18 -18 -17 -17 -17 -17 -17 -18 -19 -19 -19 -18 -18 -18 -18 -18 -16 -15
-2 -2 -3 -3 -5 -5 -5 -5 -6 -7 -8 -9 -9 -8 -8 -7 -6 -7 -13 -16 -16 -16 -17 -17 -17 -17 -17 -17 -18 -18 -19 -20 -20 -20 -18 -18 -18 -18 -19 -19 -19 -18 -18 -18 -19 -20 -19 -19 -19 -19 -18 -18 -17 -18
-2 -4 -8 -9 -8 -7 -7 -7 -7 -7 -6 -6 -10 -10 -9 -8 -9 -14 -16 -17 -17 -18 -18 -19 -19 -19 -19 -19 -19 -20 -20 -19 -20 -20 -19 -18 -18 -18 -18 -19 -20 -19 -18 -19 -19 -19 -20 -20 -19 -18 -19 -19 -20 -20
-10 -11 -11 -10 -9 -8 -7 -7 -7 -8 -9 -11 -9 -9 -8 -9 -11 -15 -16 -18 -19 -19 -19 -19 -19 -20 -20 -20 -20 -20 -20 -20 -19 -18 -18 -18 -18 -18 -18 -19 -19 -18 -19 -20 -19 -19 -20 -19 -18 -19 -19 -20 -21 -20
-12 -14 -13 -10 -9 -9 -10 -11 -11 -12 -13 -12 -12 -11 -12 -16 -18 -18 -18 -19 -19 -19 -19 -19 -19 -19 -19 -20 -20 -20 -20 -21 -21 -26 -25 -22 -21 -19 -19 -19 -19 -19 -19 -20 -20 -20 -19 -18 -20 -19 -20 -21 -21 -20
-15 -17 -14 -14 -14 -12 -15 -17 -17 -19 -17 -19 -19 -18 -20 -21 -19 -19 -19 -19 -19 -19 -19 -20 -20 -20 -21 -21 -21 -20 -19 -20 -21 -21 -25 -25 -22 -20 -19 -19 -19 -19 -19 -20 -20 -20 -20 -20 -20 -20 -21 -21 -22 -20
-19 -19 -18 -18 -17 -19 -23 -23 -25 -24 -25 -27 -24 -21 -21 -22 -19 -18 -18 -18 -18 -18 -19 -19 -19 -19 -20 -21 -21 -22 -23 -20 -20 -21 -21 -21 -20 -19 -19 -19 -19 -19 -19 -20 -20 -21 -21 -21 -22 -22 -23 -23 -23 -23
-23 -27 -24 -21 -20 -25 -25 -26 -30 -29 -29 -27 -25 -29 -25 -21 -20 -18 -16 -17 -17 -17 -17 -17 -18 -18 -19 -19 -20 -20 -21 -21 -21 -21 -20 -20 -19 -19 -18 -18 -18 -19 -19 -20 -20 -21 -21 -22 -22 -23 -23 -23 -23 -23
-30 -31 -31 -29 -25 -23 -26 -25 -26 -26 -27 -26 -24 -26 -26 -20 -20 -18 -16 -16 -16 -17 -17 -17 -18 -18 -18 -18 -19 -19 -19 -19 -20 -20 -19 -19 -19 -18 -18 -18 -18 -19 -19 -20 -20 -21 -21 -22 -22 -23 -23 -23 -23 -23
Height
873 874 874 874 874 874 874 873 872 872 871 869 868 866 864 862 860 859 858 857 858 858 847 841 840 840 842 845 839 846 847 851 852 844 837 841 834 833 832 837 851 845 853 861 849 845 832 796 800 795 783 783 785 789
876 877 877 876 876 876 876 875 875 874 872 870 869 867 865 863 862 860 860 858 857 856 848 841 838 838 838 838 843 844 836 842 837 846 842 838 824 831 837 816 836 822 816 827 822 806 785 790 781 778 779 780 784 789
880 880 879 879 879 880 879 877 875 875 873 872 871 869 866 864 862 863 861 858 857 856 846 840 832 832 832 833 836 843 836 833 838 831 837 831 822 835 817 830 830 822 812 812 805 777 781 779 779 780 782 782 785 784
882 882 882 881 881 881 880 878 876 875 873 872 871 869 866 865 863 862 860 859 858 857 854 839 831 833 834 833 832 832 832 832 832 832 828 821 817 816 818 811 810 805 804 797 788 775 775 781 780 781 781 782 782 779
885 885 884 883 882 880 878 878 877 875 873 872 869 867 865 863 861 859 857 857 856 859 859 845 832 835 832 831 831 831 831 832 831 826 824 818 816 815 806 808 791 796 788 790 776 778 782 779 776 779 779 778 775 777
887 885 884 884 882 881 880 878 876 874 871 869 867 865 864 862 861 859 857 858 855 855 853 845 836 835 835 833 832 830 829 829 828 823 819 816 815 814 803 809 798 794 788 790 787 781 781 779 778 777 776 775 773 772
888 886 885 884 882 882 880 878 875 872 870 868 866 863 861 858 856 857 860 858 857 857 853 847 840 839 835 833 831 830 829 827 827 825 819 820 816 815 807 798 775 789 791 789 787 786 782 780 780 776 775 772 771 769
890 888 886 884 882 880 878 877 874 872 869 866 862 859 856 855 854 856 855 852 853 855 855 852 847 842 837 840 841 834 836 834 833 830 827 826 823 825 811 802 799 796 793 790 787 787 784 781 779 775 774 774 773 770
889 887 886 883 882 879 877 873 871 869 866 863 859 854 853 853 854 855 854 855 855 857 853 848 842 851 840 841 842 838 835 834 835 838 832 826 824 821 800 802 799 796 795 792 788 786 783 783 779 775 775 773 774 768
889 886 883 882 880 878 875 873 869 867 864 860 856 855 857 857 856 857 854 855 855 857 853 852 850 854 847 846 841 836 839 839 849 837 830 834 829 811 799 796 791 792 790 793 790 783 782 777 776 775 773 771 769 766
887 885 882 880 879 876 875 873 870 865 861 860 860 861 859 856 853 852 857 859 865 869 860 854 851 844 842 846 846 842 843 843 853 840 834 845 830 812 799 797 789 789 788 787 785 781 782 782 779 776 769 766 763 761
885 882 881 879 877 876 874 871 870 867 864 863 862 858 858 859 858 861 863 866 867 862 854 848 846 843 841 842 846 846 846 849 834 842 845 846 815 798 792 791 790 786 784 782 781 778 774 774 773 771 768 764 761 758
884 882 880 877 874 873 872 872 870 863 861 860 862 859 860 867 862 860 880 879 873 854 849 850 850 845 844 844 848 846 846 842 842 851 842 823 806 801 794 792 787 782 780 778 775 774 772 772 771 769 766 762 759 755
880 879 878 876 872 869 866 870 869 865 862 863 862 866 863 869 862 867 864 860 849 851 850 848 848 846 846 850 850 833 832 840 850 856 833 803 795 794 791 789 787 780 778 776 774 772 771 769 768 767 765 761 757 752
878 877 873 872 869 868 868 868 867 866 865 866 863 864 869 862 863 859 859 856 846 844 844 846 843 842 846 841 841 844 848 847 833 824 809 794 791 790 786 781 777 775 774 773 772 771 769 768 766 764 761 758 755 750
874 872 870 869 868 867 868 868 867 866 864 864 860 856 855 856 854 855 856 848 839 839 839 842 835 837 840 844 841 838 850 833 803 806 793 790 783 781 778 774 771 770 771 771 771 770 769 766 763 761 757 754 751 747
871 869 869 868 866 865 864 864 863 861 858 855 849 846 854 855 845 836 838 835 832 837 841 837 830 829 838 830 833 827 825 788 785 786 785 780 777 774 772 770 771 772 771 771 770 768 766 764 761 757 753 750 748 744
866 865 865 864 863 861 860 859 858 853 847 848 845 842 843 835 835 831 828 827 831 833 832 825 824 819 813 825 819 805 802 797 790 788 784 781 779 777 775 775 774 773 772 771 769 768 765 761 758 756 753 749 744 740
860 859 859 859 860 858 856 853 851 845 840 842 838 836 833 827 821 817 816 816 817 819 821 816 812 812 815 809 809 803 803 800 798 793 789 786 785 783 781 779 777 775 773 772 770 767 764 761 758 755 752 747 742 738
854 853 853 853 854 853 850 847 844 839 832 831 832 831 829 822 815 813 811 812 815 816 815 811 808 812 814 812 811 810 808 807 803 795 790 789 788 786 783 781 779 776 774 772 770 767 762 759 756 754 751 746 741 736
848 846 847 847 847 847 842 839 839 832 826 827 823 825 824 821 818 815 812 809 816 813 807 812 813 815 815 814 813 813 811 809 806 804 799 793 790 787 784 782 780 778 776 773 771 767 764 761 757 753 749 744 739 734
839 840 840 839 837 835 830 826 827 824 826 821 820 817 818 817 816 812 807 811 812 816 818 817 817 817 815 814 813 812 811 808 805 803 799 797 793 789 786 784 781 779 777 774 772 769 764 760 756 752 747 742 736 730
835 832 830 829 828 824 821 821 820 820 816 818 819 817 813 808 803 805 809 814 817 819 819 818 817 816 816 815 813 812 811 807 804 802 798 795 794 793 790 788 784 780 776 774 772 768 764 759 754 749 744 739 734 727
826 823 818 815 813 814 822 820 821 821 821 821 818 816 813 808 806 799 799 820 821 821 820 821 818 815 815 815 814 812 812 809 806 801 798 795 794 792 790 788 786 781 778 775 771 767 762 757 752 747 743 737 731 726
817 812 812 807 812 813 816 819 819 818 806 814 818 815 808 809 804 805 802 821 821 822 821 822 820 818 817 816 814 812 812 810 806 802 796 795 794 792 790 787 786 782 777 774 769 765 760 755 750 745 741 736 729 722
810 804 807 802 806 808 805 805 806 806 809 809 807 801 801 798 795 795 818 824 824 823 823 823 821 818 817 816 814 811 811 809 805 800 796 795 793 792 790 788 786 781 776 773 769 764 759 754 749 743 737 732 727 721
799 804 813 814 813 810 807 806 806 806 803 802 810 809 806 798 802 821 823 824 824 823 822 821 820 818 817 815 814 811 809 806 803 798 794 792 792 791 790 789 784 779 775 772 767 764 759 753 747 742 737 730 727 721
825 826 826 823 817 814 811 810 806 808 812 816 811 807 802 805 811 822 823 824 823 822 821 820 818 818 816 814 812 809 806 803 799 794 792 791 791 789 788 785 782 779 774 770 767 762 757 752 747 742 737 731 724 719
833 834 830 822 819 817 817 820 822 822 824 823 822 816 813 819 822 823 823 823 822 822 820 819 817 816 814 812 810 807 804 802 799 798 798 794 790 787 785 781 778 774 770 767 763 760 755 751 745 741 736 731 725 720
842 844 837 832 832 825 829 832 830 829 828 827 825 823 823 823 823 823 823 823 822 821 820 818 816 814 812 809 806 803 801 800 798 798 796 793 789 784 781 778 775 772 769 765 760 755 751 746 741 737 733 728 724 720
852 849 846 845 839 836 836 834 832 831 830 829 827 826 825 825 823 822 822 822 821 819 818 816 814 813 810 808 805 802 798 796 795 794 791 788 785 781 778 775 773 770 766 762 758 755 750 746 742 738 734 730 726 723
858 866 864 856 845 839 837 839 841 839 837 833 831 830 827 825 825 821 820 820 819 818 817 815 812 809 807 805 802 799 796 792 790 788 786 783 780 778 774 770 768 765 762 759 756 753 750 746 743 739 736 732 728 724
870 871 870 868 857 849 848 847 841 841 838 836 832 832 831 826 825 819 818 817 817 816 815 813 810 808 804 801 798 794 791 789 786 784 782 780 777 773 770 766 763 760 758 756 754 751 748 745 742 738 735 732 728 725
Wind_Speed
15 14 13 13 12 10 10 10 10 11 12 13 14 14 14 15 16 13 3 3 1 2 6 4 3 5 1 2 4 2 3 1 1 3 3 3 2 4 1 4 7 8 8 5 3 4 10 7 4 5 3 1 3 3
11 10 9 9 9 9 9 10 11 11 12 14 14 15 15 15 15 15 3 7 5 4 6 8 12 12 11 10 3 4 4 5 5 2 2 2 3 2 4 5 3 3 7 5 10 8 4 7 5 4 1 5 3 2
9 9 9 10 9 10 10 10 10 11 12 14 14 14 15 15 16 16 8 9 5 4 6 4 4 3 7 14 19 3 3 1 1 3 3 3 6 3 4 5 2 4 6 3 1 3 12 9 4 2 3 2 3 9
10 9 8 8 9 10 10 12 13 11 13 12 13 13 14 14 14 15 16 8 4 2 3 6 4 6 9 8 8 14 6 3 2 0 2 3 4 3 3 4 3 5 4 8 11 17 15 1 2 4 4 6 9 7
9 7 6 7 8 9 10 11 12 12 13 13 14 14 14 14 14 14 12 4 3 1 2 5 23 4 7 6 2 5 3 2 0 4 4 5 2 4 4 2 12 5 15 9 15 10 4 7 8 6 6 9 8 3
9 9 8 8 9 10 11 12 12 13 14 14 14 14 14 15 14 11 5 5 9 2 2 3 1 5 9 7 3 2 1 2 2 2 2 2 1 2 4 3 6 3 3 3 5 6 4 5 5 8 8 7 5 5
11 11 10 10 9 10 12 13 14 15 16 17 18 17 15 13 9 2 3 5 13 10 2 4 4 4 6 4 2 2 1 1 1 2 2 1 2 3 2 9 23 6 4 6 4 4 4 2 4 6 5 12 15 15
13 13 12 12 11 11 11 13 14 16 17 19 18 19 20 16 10 5 5 4 6 1 2 2 4 3 7 3 3 4 2 3 3 2 2 0 2 1 4 5 6 5 6 4 6 1 5 6 8 8 6 5 9 11
15 16 15 13 14 14 15 14 16 18 19 21 23 20 2 2 2 1 5 7 4 1 2 2 2 3 3 2 1 3 1 1 1 1 2 1 1 4 6 5 4 3 1 6 9 7 8 5 10 8 4 2 4 8
16 16 15 14 15 16 16 15 17 18 19 19 9 3 3 2 10 10 2 2 0 1 1 3 1 2 2 1 3 2 1 2 1 3 1 1 4 6 8 8 7 5 7 2 4 8 6 11 7 7 6 5 7 8
17 16 15 16 16 16 16 15 15 17 10 6 7 2 6 8 3 2 1 2 2 4 1 3 3 2 0 0 3 1 2 0 2 3 1 3 4 5 5 5 6 4 5 6 7 8 6 8 8 8 10 9 12 13
15 15 16 17 16 15 14 13 13 11 8 6 8 10 3 3 2 3 1 3 2 3 2 3 3 3 2 0 1 2 2 2 5 1 3 3 5 6 6 6 4 6 8 8 8 8 13 8 9 9 11 12 16 20
15 16 15 14 14 14 15 15 13 9 10 3 2 2 2 3 1 1 3 4 2 3 3 1 2 1 2 1 2 1 1 4 1 2 4 5 4 4 5 4 6 13 12 11 12 15 11 12 14 12 15 19 22 20
14 13 15 17 16 12 10 9 9 3 3 1 1 4 2 3 4 5 4 4 4 3 1 1 2 2 1 1 2 2 1 2 2 1 7 4 5 4 4 4 2 6 5 6 9 6 10 12 13 16 16 19 20 17
13 15 16 15 5 6 8 7 3 2 2 1 1 4 5 3 3 3 2 3 3 2 2 1 2 2 2 3 3 1 4 4 6 5 4 4 4 4 4 4 6 6 5 3 3 6 10 12 13 14 19 20 18 20
14 15 8 5 5 7 11 9 7 3 2 2 4 4 2 2 4 1 2 5 3 2 1 1 3 2 5 3 2 7 5 7 5 3 3 3 4 5 6 7 6 5 2 4 9 9 12 14 13 16 20 16 19 21
13 6 7 8 15 17 11 5 4 5 4 4 4 6 3 2 5 5 4 4 8 3 3 2 4 8 1 3 3 4 5 8 5 5 3 5 7 8 6 6 2 4 6 8 8 11 13 15 17 14 11 18 19 20
17 19 18 17 17 12 4 7 4 4 6 5 3 4 3 3 3 4 4 4 3 3 3 4 2 4 5 4 4 4 3 3 2 4 8 9 11 11 11 8 8 8 8 8 10 13 13 13 11 12 16 19 19 18
20 20 18 17 12 6 3 3 5 4 7 3 3 2 3 3 7 13 9 9 13 4 2 2 5 3 4 2 2 3 5 5 7 9 9 9 12 11 11 11 10 10 10 11 13 11 14 14 14 16 16 18 16 19
19 20 19 17 11 5 3 3 5 3 3 4 2 2 3 3 2 2 3 2 3 3 3 4 4 1 2 3 3 4 6 8 7 7 6 7 12 12 11 10 10 11 10 13 12 14 14 14 13 16 18 20 20 19
19 19 15 14 8 13 6 3 3 3 2 3 2 2 4 3 3 2 3 2 2 3 3 1 1 2 6 5 5 8 7 11 6 4 7 7 12 10 9 10 12 9 9 9 9 14 15 14 18 20 20 21 21 22
13 12 9 14 11 7 4 10 4 2 1 3 1 2 3 3 4 3 2 2 2 1 0 1 2 4 4 2 5 5 7 10 9 10 12 13 5 9 10 10 10 9 10 10 12 14 17 19 20 21 21 22 24 24
19 13 9 10 6 6 5 4 4 4 4 3 1 2 4 4 4 1 2 0 2 2 2 2 5 7 4 6 6 7 9 11 9 10 10 9 11 12 12 12 12 11 10 11 16 17 19 22 22 23 23 23 23 24
19 7 5 5 8 4 1 3 0 1 0 2 3 4 5 4 0 2 4 2 1 2 4 7 6 4 4 4 5 8 12 12 11 10 11 10 8 10 11 12 13 13 12 15 17 17 20 21 24 22 22 23 23 22
4 4 3 5 0 2 4 2 2 2 5 3 4 5 3 3 2 2 1 1 1 2 3 7 6 5 3 3 8 10 11 13 12 11 16 6 11 10 10 11 13 13 12 17 18 22 22 23 24 24 24 21 24 26
6 4 6 5 2 4 3 3 4 4 2 2 6 2 1 1 2 1 1 0 1 1 3 4 5 4 4 7 8 10 14 16 16 11 11 9 9 7 7 7 10 14 18 16 23 21 23 23 23 25 25 26 26 27
4 1 3 3 2 1 3 2 2 2 3 2 3 4 3 3 2 1 2 1 1 3 8 8 7 7 8 11 14 15 17 14 17 18 18 10 6 6 6 10 12 19 20 22 22 21 21 24 25 23 24 26 23 22
3 5 5 6 3 2 3 3 2 2 3 3 3 2 3 2 1 1 1 1 6 7 7 7 6 8 10 12 13 14 13 12 16 10 4 3 7 4 10 19 16 18 19 18 21 24 23 25 20 22 21 23 26 27
3 5 4 2 2 2 1 2 2 2 3 2 2 3 2 1 1 1 1 5 5 4 7 11 11 12 10 9 7 9 9 9 13 5 5 4 7 11 22 23 18 21 20 22 22 22 21 20 21 20 19 21 21 22
4 4 3 3 2 2 1 2 2 2 3 2 3 2 2 1 0 0 1 3 4 7 9 10 12 13 13 14 18 20 13 8 6 5 3 5 13 26 28 23 17 18 17 20 23 27 24 23 24 25 25 25 25 24
4 3 2 2 3 2 2 9 6 3 2 2 3 1 1 2 2 3 3 3 5 8 11 12 14 14 15 16 17 17 17 9 7 17 20 21 24 27 26 23 14 14 16 18 20 23 24 24 23 24 24 25 25 23
4 3 2 4 4 4 9 5 3 2 3 3 2 2 3 2 1 2 1 2 3 5 5 10 14 19 20 21 21 20 18 21 21 20 21 19 22 25 30 19 10 11 15 19 20 21 21 21 20 20 21 22 23 23
2 2 1 3 4 6 4 6 4 5 3 3 2 1 2 1 4 3 4 6 6 7 11 14 16 19 22 22 22 23 18 17 18 18 19 20 22 23 24 19 13 10 16 19 19 20 20 20 21 19 20 20 21 21
Wind_Direction
75 71 68 62 56 49 42 32 27 21 20 20 16 15 14 12 9 10 359 9 303 239 279 236 233 214 242 167 242 205 354 328 73 207 237 250 252 247 347 155 181 171 167 205 180 217 274 152 121 187 224 253 203 206
70 64 58 55 47 41 41 37 29 23 19 19 18 17 14 10 6 6 11 354 326 223 254 276 261 262 254 237 172 216 215 178 204 131 219 277 247 210 211 270 51 252 198 196 191 216 242 206 227 233 193 253 169 187
67 59 53 49 35 23 18 13 8 2 0 357 353 355 0 3 7 5 348 339 326 326 292 341 269 242 270 250 231 185 303 248 319 193 192 233 251 109 264 247 197 257 210 228 222 243 259 278 250 243 178 140 186 228
53 50 51 41 30 21 14 9 4 360 355 348 343 342 341 338 338 342 337 318 289 262 282 282 321 325 310 283 266 243 261 247 149 11 260 236 240 203 234 245 219 215 149 257 262 281 290 253 244 199 199 226 245 255
40 36 32 23 13 5 359 351 346 349 343 338 338 336 332 330 330 326 335 326 261 267 264 294 311 26 32 15 324 260 282 296 253 253 237 257 234 234 247 253 264 223 256 250 265 323 336 303 285 193 223 249 244 222
25 19 8 355 359 358 359 359 348 342 342 333 333 330 328 328 330 338 12 70 48 322 287 290 297 23 5 0 357 11 203 220 216 239 247 244 183 213 259 260 259 312 12 117 282 304 296 305 271 218 233 265 267 244
15 10 5 0 351 346 350 351 345 344 335 328 326 324 317 316 314 215 215 300 311 326 285 301 288 338 334 298 338 343 297 233 230 277 250 274 217 236 244 264 277 309 306 324 312 319 334 292 267 325 269 273 286 278
4 357 352 348 342 337 335 338 338 329 324 322 322 316 311 308 284 236 263 285 291 246 301 274 273 0 9 325 335 3 354 6 338 288 330 298 317 354 261 260 282 301 310 331 344 277 237 279 296 293 281 323 315 303
348 346 343 340 336 332 329 328 329 328 328 327 320 315 333 68 65 5 275 278 259 244 263 264 318 292 358 284 257 344 8 325 292 254 269 323 227 236 237 241 277 257 122 280 313 304 301 286 286 298 312 333 258 291
334 336 336 336 337 336 335 334 332 330 330 327 331 344 353 54 335 319 56 28 170 315 255 238 358 291 72 341 304 317 10 234 308 256 342 162 263 267 253 236 260 298 254 148 341 329 320 311 318 312 293 263 242 269
325 328 331 331 331 333 334 334 329 334 337 347 359 292 322 330 4 44 37 62 334 349 243 255 185 265 211 267 262 194 274 253 5 270 112 300 276 253 290 296 234 290 289 248 246 257 254 254 281 294 308 304 306 308
323 323 322 325 327 327 325 323 326 338 333 311 287 293 312 17 17 57 334 319 108 233 249 210 232 207 293 347 77 302 215 40 243 281 61 281 254 257 276 334 354 289 281 278 258 280 310 302 299 287 287 302 320 321
315 315 319 323 326 324 320 321 322 317 313 336 296 329 40 315 342 214 244 295 289 226 238 237 311 200 348 25 283 12 318 235 10 48 233 234 262 299 283 276 298 317 305 301 313 316 322 331 340 332 319 322 323 317
313 314 312 314 321 333 336 312 300 334 322 28 348 301 225 259 238 197 191 202 239 159 181 130 276 207 219 334 206 236 251 59 0 317 237 258 250 239 262 247 249 277 288 285 288 297 319 320 319 326 322 323 321 315
305 305 307 319 338 359 343 347 314 316 301 226 207 237 230 249 247 229 248 311 237 207 149 354 263 195 244 251 199 11 348 257 208 229 232 243 253 241 261 243 257 266 277 272 297 324 323 323 319 314 327 325 324 323
308 309 314 301 299 300 317 303 301 268 248 227 230 244 226 299 282 273 206 257 194 193 88 97 252 240 235 197 158 221 148 228 248 216 245 259 262 255 257 280 280 281 302 338 335 325 318 321 319 314 324 329 332 327
305 257 287 279 301 311 304 243 219 216 227 222 234 230 186 254 241 255 179 231 173 118 203 197 233 223 121 226 238 191 214 264 304 311 272 268 287 292 293 308 43 8 2 352 335 329 324 326 329 328 327 329 324 319
279 285 290 296 304 297 237 207 227 234 237 223 230 222 201 218 224 252 227 171 130 193 155 220 199 202 233 210 261 253 255 276 274 323 330 328 337 357 20 20 18 10 355 346 341 333 333 332 332 328 321 318 321 322
286 292 292 291 294 237 235 236 215 251 237 224 268 239 222 250 235 247 261 230 209 176 183 224 244 223 238 244 313 336 341 345 323 320 314 28 23 18 10 8 3 0 351 347 342 329 327 331 321 320 319 322 317 323
285 285 285 281 263 225 246 244 215 249 244 234 239 250 223 230 289 249 251 160 149 171 208 230 225 262 5 352 355 326 328 344 320 319 323 350 1 359 3 1 354 344 340 345 343 344 337 334 339 333 326 325 325 316
283 281 276 256 222 216 230 198 239 227 226 220 191 180 265 341 277 265 264 153 99 203 224 38 61 28 346 344 21 350 348 345 329 326 316 324 340 347 349 351 353 350 344 336 338 334 339 332 327 322 322 320 319 320
259 258 235 216 218 221 239 210 199 220 192 240 325 180 256 267 256 233 169 120 222 212 60 350 359 337 332 21 11 14 352 345 339 340 342 345 332 342 342 345 345 342 341 341 344 333 326 325 324 327 323 322 322 319
270 230 217 211 214 209 240 175 198 204 226 235 114 219 235 233 222 84 204 111 105 63 0 13 339 331 319 4 9 0 358 355 345 340 337 338 334 334 335 336 340 335 333 340 340 331 324 327 326 327 324 322 321 319
262 217 210 210 200 223 75 199 7 222 279 213 196 245 260 227 91 195 234 75 50 28 28 359 357 353 346 349 357 352 342 339 327 332 341 332 341 332 338 336 334 336 336 329 330 328 326 324 328 325 325 322 320 319
231 225 211 233 342 155 209 225 215 182 233 215 183 271 298 356 261 223 144 55 32 17 13 348 348 359 334 321 331 330 334 343 331 324 324 327 340 343 345 342 331 330 343 339 336 332 327 327 325 324 323 322 323 326
217 219 198 203 198 198 208 239 214 235 220 238 225 248 227 238 268 320 56 301 345 343 360 334 326 325 326 327 322 330 322 329 332 315 314 322 327 321 322 331 325 332 347 346 338 329 325 324 321 322 324 328 330 331
228 76 18 27 326 283 265 226 216 226 248 263 352 329 355 263 259 95 148 81 329 333 326 319 314 315 307 310 315 317 325 327 329 309 309 310 315 309 313 325 312 327 341 336 342 332 325 320 318 324 326 327 329 328
27 26 2 330 324 352 308 304 299 8 20 353 296 291 298 329 4 82 68 329 335 335 334 329 305 312 320 317 316 316 323 330 342 342 327 316 345 323 331 340 341 336 334 341 339 338 338 333 331 330 332 329 330 341
27 349 318 292 297 297 359 351 17 45 6 338 316 274 254 75 76 89 317 339 347 336 347 356 356 347 345 332 328 334 321 328 5 12 357 318 322 326 337 341 335 341 341 340 343 345 342 341 341 339 337 341 340 339
15 348 315 320 281 271 9 15 312 325 301 285 292 345 23 8 152 285 5 348 344 339 331 322 322 328 331 335 334 337 340 306 279 319 254 278 302 322 328 331 325 336 339 344 343 346 351 352 357 1 3 0 359 354
343 318 296 294 271 280 311 313 290 267 324 340 353 164 232 299 286 253 264 312 326 329 329 331 335 339 331 329 324 319 318 328 284 305 309 304 304 314 319 311 308 332 345 348 347 349 350 353 356 356 358 359 0 359
359 53 8 319 297 305 3 9 310 342 335 18 328 353 353 35 295 260 214 226 285 324 357 339 334 334 341 337 331 320 300 297 300 297 306 302 304 315 312 300 314 340 346 345 347 345 345 349 348 349 349 351 354 358
356 13 2 341 319 332 343 346 351 336 352 357 303 230 217 242 226 260 225 243 256 286 309 323 331 332 327 322 323 326 320 317 313 306 301 302 302 304 307 306 303 342 339 339 335 335 336 338 342 341 341 341 343 348